Aurora, NE

12:03 PM CDT on September 24, 2017 (GMT -0500)
Aurora Municipal

Weather History for KAUH - September, 2012

Change the Weather History Date:

Friday, September 7, 2012

  Actual Average Record
Temperature  
Mean Temperature 62 °F -  
Max Temperature 75 °F 85 °F 99 °F (1970)
Min Temperature 50 °F 58 °F 44 °F (2010)
Degree Days  
Heating Degree Days 2    
Growing Degree Days 12 (Base 50)    
Moisture  
Dew Point 48 °F    
Average Humidity 55    
Maximum Humidity 79    
Minimum Humidity 31    
Precipitation  
Precipitation 0.00 in - - ()
Sea Level Pressure  
Sea Level Pressure 30.05 in    
Wind  
Wind Speed 11 mph (NNW)    
Max Wind Speed 22 mph    
Max Gust Speed 29 mph    
Visibility 10 miles    
Events Rain , Thunderstorm    
Averages and records for this station are not official NWS values.
T = Trace of Precipitation, MM = Missing Value Source: NWS Daily Summary

Daily Weather History Graph

Daily Weather History Graph

Search for Another Location

Airport or City:

Trip Planner

Search our weather history database for the weather conditions in past years. The results will help you decide how hot, cold, wet, or windy it might be!

Date:

Astronomy

Sep. 07, 2012 Rise Set
Actual Time 7:05 AM CDT 7:53 PM CDT
Civil Twilight 6:37 AM CDT 8:21 PM CDT
Nautical Twilight 6:04 AM CDT 8:54 PM CDT
Astronomical Twilight 5:30 AM CDT 9:28 PM CDT
Moon 11:47 PM CDT (9/7) 2:01 PM CDT (9/7)
Length of Visible Light 13h 44m
Length of Day
12h 48m
Waning Gibbous, 58% of the Moon is Illuminated
Sep 7
Waning Gibbous
Sep 8
Last Quarter
Sep 15
New
Sep 22
First Quarter
Sep 29
Full

Hourly Weather History & Observations

Time (CDT) Temp. Dew Point Humidity Pressure Visibility Wind Dir Wind Speed Gust Speed Precip Events Conditions
12:15 AM 69.6 °F 54.5 °F 59% 29.85 in 10.0 mi West 6.9 mph - N/A   Clear
12:35 AM 68.4 °F 51.1 °F 54% 29.85 in 10.0 mi WNW 10.4 mph - N/A   Clear
12:55 AM 67.3 °F 50.0 °F 54% 29.85 in 10.0 mi NW 8.1 mph - N/A   Clear
1:35 AM 63.7 °F 49.8 °F 61% 29.86 in 10.0 mi WNW 6.9 mph - N/A   Clear
1:55 AM 63.3 °F 49.5 °F 61% 29.86 in 10.0 mi WNW 5.8 mph - N/A   Clear
2:15 AM 62.1 °F 49.8 °F 64% 29.87 in 10.0 mi WNW 5.8 mph - N/A   Clear
2:35 AM 61.7 °F 49.5 °F 64% 29.87 in 10.0 mi NW 6.9 mph - N/A   Clear
2:55 AM 62.1 °F 49.3 °F 63% 29.87 in 10.0 mi NW 6.9 mph - N/A   Clear
3:15 AM 61.9 °F 49.6 °F 64% 29.88 in 10.0 mi WNW 6.9 mph - N/A   Clear
3:35 AM 62.1 °F 49.5 °F 63% 29.88 in 10.0 mi NW 6.9 mph - N/A   Clear
3:55 AM 63.0 °F 49.3 °F 61% 29.89 in 10.0 mi NNW 9.2 mph - N/A   Clear
4:15 AM 65.7 °F 49.1 °F 55% 29.90 in 10.0 mi NNW 12.7 mph 18.4 mph N/A   Clear
4:35 AM 65.3 °F 49.3 °F 56% 29.92 in 10.0 mi NNW 12.7 mph 19.6 mph N/A   Clear
4:55 AM 64.6 °F 49.6 °F 58% 29.92 in 10.0 mi North 13.8 mph - N/A   Clear
5:15 AM 64.6 °F 49.1 °F 57% 29.93 in 10.0 mi North 17.3 mph 25.3 mph N/A   Clear
5:35 AM 64.4 °F 48.7 °F 57% 29.94 in 10.0 mi North 17.3 mph 23.0 mph N/A   Clear
5:55 AM 64.0 °F 48.4 °F 57% 29.96 in 10.0 mi North 16.1 mph 24.2 mph N/A   Clear
6:15 AM 63.5 °F 48.2 °F 57% 29.96 in 10.0 mi North 21.9 mph 28.8 mph N/A   Clear
6:35 AM 63.5 °F 48.2 °F 57% 29.97 in 10.0 mi North 17.3 mph 25.3 mph N/A   Clear
6:55 AM 63.3 °F 47.8 °F 57% 29.98 in 10.0 mi North 16.1 mph 23.0 mph N/A   Scattered Clouds
7:15 AM 63.5 °F 48.2 °F 57% 29.99 in 10.0 mi North 11.5 mph 18.4 mph N/A   Mostly Cloudy
7:35 AM 63.1 °F 48.2 °F 58% 30.01 in 10.0 mi North 12.7 mph - N/A   Scattered Clouds
7:55 AM 63.7 °F 48.6 °F 58% 30.01 in 10.0 mi North 16.1 mph 23.0 mph N/A   Clear
8:15 AM 63.9 °F 48.9 °F 58% 30.03 in 10.0 mi North 13.8 mph 20.7 mph N/A   Clear
8:35 AM 64.4 °F 48.9 °F 57% 30.04 in 10.0 mi North 11.5 mph 25.3 mph N/A   Clear
8:55 AM 64.4 °F 49.1 °F 58% 30.06 in 10.0 mi North 12.7 mph - N/A   Mostly Cloudy
9:15 AM 64.0 °F 48.2 °F 56% 30.07 in 10.0 mi North 15.0 mph 20.7 mph N/A   Overcast
9:35 AM 63.5 °F 49.8 °F 61% 30.09 in 10.0 mi NNE 12.7 mph - N/A Rain , Thunderstorm Light Thunderstorms and Rain
9:55 AM 61.7 °F 51.6 °F 69% 30.05 in 10.0 mi NNE 12.7 mph 24.2 mph N/A Rain Light Rain
10:15 AM 63.1 °F 51.4 °F 66% 30.10 in 10.0 mi North 12.7 mph 18.4 mph N/A   Scattered Clouds
10:35 AM 64.4 °F 50.9 °F 62% 30.10 in 10.0 mi NNE 15.0 mph 21.9 mph N/A Thunderstorm Scattered Clouds
10:55 AM 65.5 °F 49.8 °F 57% 30.11 in 10.0 mi NNE 17.3 mph 23.0 mph N/A   Scattered Clouds
11:15 AM 65.3 °F 49.5 °F 57% 30.10 in 10.0 mi NNE 18.4 mph 21.9 mph N/A   Scattered Clouds
11:35 AM 66.4 °F 49.5 °F 54% 30.11 in 10.0 mi NNE 17.3 mph 23.0 mph N/A   Clear
11:55 AM 68.2 °F 50.0 °F 52% 30.10 in 10.0 mi North 20.7 mph 26.5 mph N/A   Scattered Clouds
12:15 PM 68.0 °F 50.4 °F 53% 30.11 in 10.0 mi North 18.4 mph 26.5 mph N/A   Clear
12:35 PM 66.2 °F 49.5 °F 55% 30.11 in 10.0 mi North 15.0 mph 25.3 mph N/A   Mostly Cloudy
12:55 PM 65.8 °F 49.6 °F 56% 30.12 in 10.0 mi NNE 11.5 mph - N/A   Mostly Cloudy
1:15 PM 64.6 °F 49.3 °F 58% 30.14 in 10.0 mi North 12.7 mph 17.3 mph N/A   Scattered Clouds
1:35 PM 64.0 °F 49.6 °F 59% 30.14 in 10.0 mi North 11.5 mph - N/A   Scattered Clouds
1:55 PM 64.9 °F 50.0 °F 58% 30.15 in 10.0 mi North 11.5 mph - N/A   Clear
2:15 PM 65.3 °F 48.6 °F 55% 30.15 in 10.0 mi North 9.2 mph 16.1 mph N/A   Clear
2:35 PM 67.5 °F 49.5 °F 52% 30.15 in 10.0 mi North 12.7 mph 17.3 mph N/A   Clear
2:55 PM 68.9 °F 50.2 °F 51% 30.15 in 10.0 mi North 10.4 mph 16.1 mph N/A   Scattered Clouds
3:15 PM 68.9 °F 50.4 °F 52% 30.13 in 10.0 mi NNW 13.8 mph 18.4 mph N/A   Mostly Cloudy
3:35 PM 70.0 °F 49.5 °F 48% 30.13 in 10.0 mi North 15.0 mph 20.7 mph N/A   Scattered Clouds
3:55 PM 70.9 °F 49.5 °F 47% 30.12 in 10.0 mi NNW 12.7 mph 18.4 mph N/A   Scattered Clouds
4:15 PM 71.8 °F 46.9 °F 41% 30.11 in 10.0 mi NNW 12.7 mph 18.4 mph N/A   Mostly Cloudy
4:35 PM 73.8 °F 45.3 °F 36% 30.11 in 10.0 mi NNW 11.5 mph 17.3 mph N/A   Mostly Cloudy
4:55 PM 74.5 °F 44.2 °F 34% 30.11 in 10.0 mi North 16.1 mph 27.6 mph N/A   Mostly Cloudy
5:15 PM 74.3 °F 42.8 °F 32% 30.11 in 10.0 mi NNW 15.0 mph 23.0 mph N/A   Scattered Clouds
5:35 PM 73.8 °F 41.5 °F 31% 30.11 in 10.0 mi North 17.3 mph 25.3 mph N/A   Scattered Clouds
5:55 PM 73.6 °F 41.2 °F 31% 30.11 in 10.0 mi North 16.1 mph 21.9 mph N/A   Scattered Clouds
6:15 PM 73.0 °F 40.3 °F 31% 30.11 in 10.0 mi North 16.1 mph 24.2 mph N/A   Clear
6:35 PM 72.5 °F 40.3 °F 31% 30.11 in 10.0 mi North 16.1 mph 21.9 mph N/A   Clear
6:55 PM 71.6 °F 40.5 °F 32% 30.11 in 10.0 mi North 11.5 mph 19.6 mph N/A   Clear
7:15 PM 70.5 °F 41.5 °F 35% 30.11 in 10.0 mi NNW 8.1 mph - N/A   Clear
7:35 PM 68.0 °F 42.6 °F 40% 30.11 in 10.0 mi North 5.8 mph - N/A   Clear
7:55 PM 64.9 °F 44.1 °F 47% 30.11 in 10.0 mi North 4.6 mph - N/A   Clear
8:15 PM 61.0 °F 46.6 °F 59% 30.11 in 10.0 mi NNW 6.9 mph - N/A   Clear
8:35 PM 58.5 °F 47.1 °F 66% 30.12 in 10.0 mi NNW 6.9 mph - N/A   Clear
8:55 PM 57.9 °F 46.8 °F 66% 30.13 in 10.0 mi NNW 5.8 mph - N/A   Clear
9:15 PM 55.9 °F 47.3 °F 73% 30.15 in 10.0 mi NNW 6.9 mph - N/A   Clear
9:35 PM 54.9 °F 46.8 °F 74% 30.15 in 10.0 mi NNW 5.8 mph - N/A   Clear
9:55 PM 54.5 °F 46.0 °F 73% 30.16 in 10.0 mi NW 5.8 mph - N/A   Clear
10:55 PM 53.2 °F 45.0 °F 73% 30.18 in 10.0 mi NNW 6.9 mph - N/A   Clear
11:35 PM 51.8 °F 44.6 °F 76% 30.19 in 10.0 mi NNW 5.8 mph - N/A   Clear
11:55 PM 50.9 °F 44.6 °F 79% 30.19 in 10.0 mi NW 6.9 mph - N/A   Clear